Location: Lombard
(41.8800°N, 88.0080°W)
Time: 06:18:41
(UTC-06:00)

Transit 4A - Pass Details

Date: 08 December 2023
Orbit: 870 x 973 km, 66.8° (Epoch: 02 March)

Event Time Altitude Azimuth Distance (km) Brightness Sun altitude
Rises 04:15:18 0° 328° (NNW) 3,588 - -31.1°
Reaches altitude 10° 04:17:51 10° 328° (NNW) 2,625 - -30.6°
Maximum altitude 04:23:57 81° 243° (WSW) 918 - -29.5°
Exits shadow 04:24:44 68° 175° (S) 968 7.9 -29.3°
Drops below altitude 10° 04:29:51 10° 156° (SSE) 2,541 10.5 -28.4°
Sets 04:32:17 0° 155° (SSE) 3,466 11.3 -27.9°
